Location: *
(46.4000°N, 12.6667°E)
Time: 18:33:45
(UTC+00:00)

CZ-4C R/B - Pass Details

Date: 18 June 2021
Orbit: 606 x 1396 km, 63.4° (Epoch: 28 July)

Event Time Altitude Azimuth Distance (km) Brightness Sun altitude
Exits shadow 01:51:22 - 169° (S) 2,557 4.3 -11.3°
Reaches altitude 10° 01:52:48 10° 159° (SSE) 2,119 4.0 -11.1°
Maximum altitude 01:56:25 22° 110° (ESE) 1,604 3.9 -10.7°
Drops below altitude 10° 02:00:30 10° 62° (ENE) 2,433 5.8 -10.3°
Sets 02:03:43 0° 48° (NE) 3,523 7.6 -10.0°
